Location: Burleson Alternative School
(32.5290°N, 97.3406°W)
Time: 19:54:28
(UTC+00:00)

Vanguard 2 Rocket - Visible Passes

Search period start: 09 November 2025 00:00
Search period end: 19 November 2025 00:00
Orbit: 554 x 3288 km, 32.9° (Epoch: 08 November)

Date Brightness Start Highest point End Pass type
(mag) Time Alt. Az. Time Alt. Az. Time Alt. Az.
09 Nov 7.2 01:52:53 10° WSW 01:56:17 50° SW 01:56:17 50° SW visible
09 Nov 10.2 08:48:24 28° S 08:48:24 28° S 08:57:07 10° SSE visible
09 Nov 10.5 10:53:47 13° SW 10:57:20 14° SW 11:05:11 10° SSW visible
10 Nov 7.0 00:49:21 10° SW 00:53:16 40° SSE 00:55:20 28° ESE visible
10 Nov 9.4 03:00:26 10° W 03:00:42 12° W 03:00:42 12° W visible
10 Nov 10.6 07:47:30 17° SE 07:47:30 17° SE 07:50:38 10° SE visible
10 Nov 10.3 09:52:52 20° SSW 09:52:52 20° SSW 10:02:51 10° S visible
11 Nov 7.2 01:56:36 10° WSW 01:59:42 48° WSW 01:59:42 48° WSW visible
11 Nov 10.4 08:51:56 20° S 08:51:56 20° S 08:58:08 10° SSE visible
12 Nov 6.5 00:52:48 10° WSW 00:56:48 56° SSE 00:58:42 34° E visible
12 Nov 10.8 07:50:55 13° SSE 07:50:55 13° SSE 07:52:16 10° SSE visible
12 Nov 10.6 09:56:17 13° SSW 09:56:17 13° SSW 10:01:04 10° SSW visible
13 Nov 7.5 02:00:21 10° W 02:03:03 41° W 02:03:03 41° W visible
13 Nov 10.6 08:55:13 14° S 08:55:13 14° S 08:58:13 10° S visible
14 Nov 6.1 00:56:24 10° WSW 01:00:25 75° SSE 01:02:01 41° E visible
14 Nov 6.5 23:52:25 10° SW 23:56:13 49° SSE 00:00:33 10° E visible
15 Nov 7.8 02:04:08 10° W 02:06:21 33° W 02:06:21 33° W visible
16 Nov 6.0 01:00:06 10° W 01:04:05 89° SSE 01:05:19 49° E visible
16 Nov 6.0 23:55:54 10° WSW 23:59:48 69° SSE 00:04:10 10° E visible
17 Nov 8.1 02:07:52 10° W 02:09:38 26° W 02:09:38 26° W visible
18 Nov 5.9 01:03:47 10° W 01:07:44 85° N 01:08:37 57° E visible
